Time,TemperatureF,DewpointF,PressureIn,WindDirection,WindDirectionDegrees,WindSpeedMPH,WindSpeedGustMPH,Humidity,HourlyPrecipIn,Conditions,Clouds,dailyrainin,SoftwareType,DateUTC
2013-04-19 00:03:00,40.0,32.0,29.87,NNW,346,19.0,24.0,72,0.00,,,-99.99,,2013-04-19 05:03:00,
2013-04-19 00:11:00,40.0,32.0,29.87,NNW,346,19.0,24.0,72,0.00,,,-99.99,,2013-04-19 05:11:00,
2013-04-19 00:22:00,39.0,30.0,29.87,NNW,344,18.0,28.0,70,0.00,,,-99.99,,2013-04-19 05:22:00,
2013-04-19 00:32:00,39.0,30.0,29.87,NNW,344,18.0,28.0,70,0.00,,,-99.99,,2013-04-19 05:32:00,
2013-04-19 00:42:00,39.0,30.0,29.87,NNW,344,18.0,28.0,70,0.00,,,-99.99,,2013-04-19 05:42:00,
2013-04-19 00:52:00,39.0,29.0,29.88,North,351,17.0,25.0,66,0.00,,,-99.99,,2013-04-19 05:52:00,
2013-04-19 01:01:00,39.0,29.0,29.88,North,351,17.0,25.0,66,0.00,,,-99.99,,2013-04-19 06:01:00,
2013-04-19 01:11:00,39.0,29.0,29.88,North,351,17.0,25.0,66,0.00,,,-99.99,,2013-04-19 06:11:00,
2013-04-19 01:22:00,38.0,28.0,29.88,NNW,342,14.0,20.0,68,0.00,,,-99.99,,2013-04-19 06:22:00,
2013-04-19 01:32:00,38.0,29.0,29.88,NNW,338,12.0,23.0,70,0.00,,,-99.99,,2013-04-19 06:32:00,
2013-04-19 01:42:00,38.0,29.0,29.88,NNW,338,12.0,23.0,70,0.00,,,-99.99,,2013-04-19 06:42:00,
2013-04-19 01:53:00,38.0,29.0,29.88,North,351,17.0,24.0,70,0.00,,,-99.99,,2013-04-19 06:53:00,
2013-04-19 02:02:00,38.0,29.0,29.88,North,355,11.0,19.0,71,0.00,,,-99.99,,2013-04-19 07:02:00,
2013-04-19 02:12:00,38.0,29.0,29.88,North,355,11.0,19.0,71,0.00,,,-99.99,,2013-04-19 07:12:00,
2013-04-19 02:21:00,38.0,29.0,29.88,North,355,11.0,19.0,71,0.00,,,-99.99,,2013-04-19 07:21:00,
2013-04-19 02:32:00,38.0,29.0,29.88,North,355,11.0,19.0,71,0.00,,,-99.99,,2013-04-19 07:32:00,
2013-04-19 02:42:00,38.0,29.0,29.88,North,355,11.0,19.0,71,0.00,,,-99.99,,2013-04-19 07:42:00,
2013-04-19 03:12:00,38.0,29.0,29.87,NNW,343,14.0,19.0,71,0.00,,,-99.99,,2013-04-19 08:12:00,
2013-04-19 03:22:00,38.0,29.0,29.87,NNW,343,14.0,19.0,71,0.00,,,-99.99,,2013-04-19 08:22:00,
2013-04-19 03:33:00,38.0,29.0,29.87,North,354,19.0,26.0,69,0.00,,,-99.99,,2013-04-19 08:33:00,
2013-04-19 03:42:00,38.0,29.0,29.87,North,354,19.0,26.0,69,0.00,,,-99.99,,2013-04-19 08:42:00,
2013-04-19 03:52:00,38.0,29.0,29.87,NNW,347,9.0,22.0,70,0.00,,,-99.99,,2013-04-19 08:52:00,
2013-04-19 04:01:00,38.0,29.0,29.87,NNW,339,17.0,27.0,70,0.00,,,-99.99,,2013-04-19 09:01:00,
2013-04-19 04:11:00,38.0,29.0,29.87,NNW,339,17.0,27.0,70,0.00,,,-99.99,,2013-04-19 09:11:00,
2013-04-19 04:21:00,37.0,27.0,29.88,SW,223,16.0,25.0,67,0.00,,,-99.99,,2013-04-19 09:21:00,
2013-04-19 04:32:00,36.0,26.0,29.88,NNW,348,18.0,26.0,68,0.00,,,-99.99,,2013-04-19 09:32:00,
2013-04-19 04:42:00,36.0,26.0,29.88,NNW,348,18.0,26.0,68,0.00,,,-99.99,,2013-04-19 09:42:00,
2013-04-19 04:52:00,35.0,27.0,29.88,North,351,16.0,22.0,72,0.00,,,-99.99,,2013-04-19 09:52:00,
2013-04-19 05:02:00,35.0,27.0,29.88,North,351,16.0,22.0,72,0.00,,,-99.99,,2013-04-19 10:02:00,
2013-04-19 05:13:00,35.0,27.0,29.88,North,351,16.0,22.0,72,0.00,,,-99.99,,2013-04-19 10:13:00,
2013-04-19 05:23:00,35.0,27.0,29.88,North,351,16.0,22.0,72,0.00,,,-99.99,,2013-04-19 10:23:00,
2013-04-19 05:33:00,35.0,28.0,29.89,NNW,343,13.0,20.0,74,0.00,,,-99.99,,2013-04-19 10:33:00,
2013-04-19 05:42:00,36.0,28.0,29.90,NNW,348,17.0,27.0,72,0.00,,,-99.99,,2013-04-19 10:42:00,
2013-04-19 05:52:00,36.0,28.0,29.90,NNW,348,17.0,27.0,72,0.00,,,-99.99,,2013-04-19 10:52:00,
2013-04-19 06:02:00,36.0,28.0,29.90,NNW,348,17.0,27.0,72,0.00,,,-99.99,,2013-04-19 11:02:00,
2013-04-19 06:11:00,36.0,28.0,29.90,NNW,348,17.0,27.0,72,0.00,,,-99.99,,2013-04-19 11:11:00,
2013-04-19 06:22:00,36.0,28.0,29.91,North,349,13.0,21.0,72,0.00,,,-99.99,,2013-04-19 11:22:00,
2013-04-19 06:32:00,36.0,27.0,29.91,North,359,19.0,32.0,70,0.00,,,-99.99,,2013-04-19 11:32:00,
2013-04-19 06:43:00,36.0,27.0,29.91,North,359,19.0,32.0,70,0.00,,,-99.99,,2013-04-19 11:43:00,
2013-04-19 06:52:00,36.0,28.0,29.92,NNW,344,14.0,20.0,72,0.00,,,-99.99,,2013-04-19 11:52:00,
2013-04-19 07:02:00,36.0,28.0,29.93,North,357,9.0,22.0,73,0.00,,,-99.99,,2013-04-19 12:02:00,
2013-04-19 07:12:00,36.0,29.0,29.94,NNW,343,12.0,20.0,74,0.00,,,-99.99,,2013-04-19 12:12:00,
2013-04-19 07:22:00,36.0,29.0,29.94,NNW,343,12.0,20.0,74,0.00,,,-99.99,,2013-04-19 12:22:00,
2013-04-19 07:32:00,36.0,28.0,29.95,North,351,17.0,24.0,73,0.00,,,-99.99,,2013-04-19 12:32:00,
2013-04-19 07:42:00,36.0,28.0,29.95,North,351,17.0,24.0,73,0.00,,,-99.99,,2013-04-19 12:42:00,
2013-04-19 07:53:00,36.0,29.0,29.95,North,351,10.0,20.0,74,0.00,,,-99.99,,2013-04-19 12:53:00,
2013-04-19 08:01:00,37.0,29.0,29.96,North,356,14.0,23.0,74,0.00,,,-99.99,,2013-04-19 13:01:00,
2013-04-19 08:11:00,37.0,29.0,29.96,North,356,14.0,23.0,74,0.00,,,-99.99,,2013-04-19 13:11:00,
2013-04-19 08:21:00,37.0,29.0,29.96,North,356,14.0,23.0,74,0.00,,,-99.99,,2013-04-19 13:21:00,
2013-04-19 08:32:00,37.0,29.0,29.96,North,356,14.0,23.0,74,0.00,,,-99.99,,2013-04-19 13:32:00,
2013-04-19 08:42:00,37.0,29.0,29.96,North,356,14.0,23.0,74,0.00,,,-99.99,,2013-04-19 13:42:00,
2013-04-19 09:02:00,38.0,30.0,29.97,NNW,343,15.0,24.0,72,0.00,,,0.00,,2013-04-19 14:02:00,
2013-04-19 09:11:00,38.0,30.0,29.97,NNW,343,15.0,24.0,72,0.00,,,0.00,,2013-04-19 14:11:00,
2013-04-19 09:22:00,37.0,29.0,29.95,NNW,342,15.0,28.0,73,0.00,,,0.00,,2013-04-19 14:22:00,
2013-04-19 09:32:00,37.0,29.0,29.95,NNW,342,15.0,28.0,73,0.00,,,0.00,,2013-04-19 14:32:00,
2013-04-19 09:42:00,37.0,29.0,29.95,NNW,342,15.0,28.0,73,0.00,,,0.00,,2013-04-19 14:42:00,
2013-04-19 09:52:00,39.0,30.0,29.95,North,357,15.0,27.0,69,0.00,,,0.00,,2013-04-19 14:52:00,
2013-04-19 10:01:00,40.0,31.0,29.96,NNW,332,11.0,22.0,69,0.00,,,0.00,,2013-04-19 15:01:00,
2013-04-19 10:12:00,40.0,31.0,29.96,NNW,332,11.0,22.0,69,0.00,,,0.00,,2013-04-19 15:12:00,
2013-04-19 10:21:00,41.0,31.0,29.96,NNW,345,12.0,29.0,66,0.00,,,0.00,,2013-04-19 15:21:00,
2013-04-19 10:33:00,42.0,30.0,29.96,North,355,10.0,26.0,62,0.00,,,0.00,,2013-04-19 15:33:00,
2013-04-19 10:43:00,42.0,30.0,29.96,North,355,10.0,26.0,62,0.00,,,0.00,,2013-04-19 15:43:00,
2013-04-19 10:52:00,42.0,30.0,29.96,NNW,338,16.0,28.0,61,0.00,,,0.00,,2013-04-19 15:52:00,
2013-04-19 11:03:00,43.0,30.0,29.96,North,357,13.0,27.0,61,0.00,,,0.00,,2013-04-19 16:03:00,
2013-04-19 11:13:00,43.0,30.0,29.96,North,357,13.0,27.0,61,0.00,,,0.00,,2013-04-19 16:13:00,
2013-04-19 11:23:00,44.0,29.0,29.97,NNW,342,11.0,26.0,56,0.00,,,0.00,,2013-04-19 16:23:00,
2013-04-19 11:32:00,44.0,28.0,29.97,North,1,18.0,24.0,54,0.00,,,0.00,,2013-04-19 16:32:00,
2013-04-19 11:42:00,44.0,28.0,29.97,North,1,18.0,24.0,54,0.00,,,0.00,,2013-04-19 16:42:00,
2013-04-19 11:53:00,45.0,29.0,29.98,NNW,346,14.0,23.0,54,0.00,,,0.00,,2013-04-19 16:53:00,
2013-04-19 12:02:00,46.0,30.0,29.97,NNW,345,10.0,27.0,53,0.00,,,0.00,,2013-04-19 17:02:00,
2013-04-19 12:12:00,46.0,30.0,29.97,NNW,345,10.0,27.0,53,0.00,,,0.00,,2013-04-19 17:12:00,
2013-04-19 12:21:00,46.0,29.0,29.97,NNE,15,16.0,26.0,51,0.00,,,0.00,,2013-04-19 17:21:00,
2013-04-19 12:33:00,47.0,30.0,29.97,NNW,340,16.0,26.0,51,0.00,,,0.00,,2013-04-19 17:33:00,
2013-04-19 12:42:00,47.0,30.0,29.97,NNW,340,16.0,26.0,51,0.00,,,0.00,,2013-04-19 17:42:00,
2013-04-19 12:52:00,47.0,30.0,29.97,NNW,340,16.0,26.0,51,0.00,,,0.00,,2013-04-19 17:52:00,
2013-04-19 13:01:00,47.0,29.0,29.96,NNW,334,12.0,23.0,50,0.00,,,0.00,,2013-04-19 18:01:00,
2013-04-19 13:13:00,47.0,29.0,29.96,NNW,334,12.0,23.0,50,0.00,,,0.00,,2013-04-19 18:13:00,
2013-04-19 13:23:00,47.0,29.0,29.96,NNW,334,12.0,23.0,50,0.00,,,0.00,,2013-04-19 18:23:00,
2013-04-19 13:33:00,47.0,29.0,29.96,NNW,334,12.0,23.0,50,0.00,,,0.00,,2013-04-19 18:33:00,
2013-04-19 13:43:00,47.0,29.0,29.96,NNW,334,12.0,23.0,50,0.00,,,0.00,,2013-04-19 18:43:00,
2013-04-19 13:52:00,49.0,28.0,29.96,North,353,24.0,30.0,44,0.00,,,0.00,,2013-04-19 18:52:00,
2013-04-19 14:02:00,50.0,31.0,29.96,NNW,342,16.0,29.0,47,0.00,,,0.00,,2013-04-19 19:02:00,
2013-04-19 14:11:00,50.0,31.0,29.96,NNW,342,16.0,29.0,47,0.00,,,0.00,,2013-04-19 19:11:00,
2013-04-19 14:21:00,49.0,28.0,29.95,NNW,344,10.0,29.0,44,0.00,,,0.00,,2013-04-19 19:21:00,
2013-04-19 14:32:00,50.0,30.0,29.95,North,353,18.0,33.0,46,0.00,,,0.00,,2013-04-19 19:32:00,
2013-04-19 14:42:00,50.0,30.0,29.95,North,353,18.0,33.0,46,0.00,,,0.00,,2013-04-19 19:42:00,
2013-04-19 14:52:00,50.0,30.0,29.95,NNW,333,11.0,26.0,46,0.00,,,0.00,,2013-04-19 19:52:00,
2013-04-19 15:02:00,50.0,31.0,29.95,North,359,13.0,25.0,48,0.00,,,0.00,,2013-04-19 20:02:00,
2013-04-19 15:11:00,50.0,31.0,29.95,North,359,13.0,25.0,48,0.00,,,0.00,,2013-04-19 20:11:00,
2013-04-19 15:22:00,51.0,31.0,29.95,North,349,14.0,25.0,46,0.00,,,0.00,,2013-04-19 20:22:00,
2013-04-19 15:32:00,52.0,30.0,29.95,North,351,19.0,29.0,43,0.00,,,0.00,,2013-04-19 20:32:00,
2013-04-19 15:42:00,52.0,30.0,29.95,North,351,19.0,29.0,43,0.00,,,0.00,,2013-04-19 20:42:00,
2013-04-19 15:52:00,52.0,30.0,29.95,North,351,19.0,29.0,43,0.00,,,0.00,,2013-04-19 20:52:00,
2013-04-19 16:01:00,52.0,30.0,29.94,NNW,337,20.0,29.0,42,0.00,,,0.00,,2013-04-19 21:01:00,
2013-04-19 16:11:00,53.0,30.0,29.97,NNW,333,14.0,28.0,41,0.00,,,0.00,,2013-04-19 21:11:00,
2013-04-19 16:21:00,53.0,30.0,29.97,NNW,333,14.0,28.0,41,0.00,,,0.00,,2013-04-19 21:21:00,
2013-04-19 16:32:00,53.0,29.0,29.98,NNW,341,21.0,28.0,40,0.00,,,0.00,,2013-04-19 21:32:00,
2013-04-19 16:42:00,53.0,29.0,29.98,NNW,341,21.0,28.0,40,0.00,,,0.00,,2013-04-19 21:42:00,
2013-04-19 16:53:00,53.0,29.0,29.98,NNW,341,21.0,28.0,40,0.00,,,0.00,,2013-04-19 21:53:00,
2013-04-19 17:02:00,54.0,30.0,29.98,North,353,12.0,29.0,40,0.00,,,0.00,,2013-04-19 22:02:00,
2013-04-19 17:12:00,54.0,30.0,29.98,North,353,12.0,29.0,40,0.00,,,0.00,,2013-04-19 22:12:00,
2013-04-19 17:22:00,53.0,30.0,29.99,NNW,341,19.0,31.0,41,0.00,,,0.00,,2013-04-19 22:22:00,
2013-04-19 17:33:00,53.0,31.0,30.00,NNW,346,18.0,29.0,42,0.00,,,0.00,,2013-04-19 22:33:00,
2013-04-19 17:42:00,53.0,31.0,30.00,NNW,346,18.0,29.0,42,0.00,,,0.00,,2013-04-19 22:42:00,
2013-04-19 17:52:00,52.0,29.0,30.00,NNW,344,19.0,29.0,41,0.00,,,0.00,,2013-04-19 22:52:00,
2013-04-19 18:02:00,54.0,31.0,30.00,North,351,10.0,23.0,42,0.00,,,0.00,,2013-04-19 23:02:00,
2013-04-19 18:11:00,54.0,31.0,30.00,North,351,10.0,23.0,42,0.00,,,0.00,,2013-04-19 23:11:00,
2013-04-19 18:22:00,53.0,30.0,30.00,NNE,24,13.0,30.0,41,0.00,,,0.00,,2013-04-19 23:22:00,
2013-04-19 18:32:00,53.0,30.0,29.99,NNW,344,12.0,19.0,41,0.00,,,0.00,,2013-04-19 23:32:00,
2013-04-19 18:42:00,53.0,30.0,29.99,NNW,344,12.0,19.0,41,0.00,,,0.00,,2013-04-19 23:42:00,
2013-04-19 18:52:00,53.0,31.0,29.99,NNW,334,11.0,20.0,42,0.00,,,0.00,,2013-04-19 23:52:00,
2013-04-19 19:02:00,53.0,31.0,29.99,NNW,342,9.0,19.0,43,0.00,,,0.00,,2013-04-20 00:02:00,
2013-04-19 19:12:00,53.0,31.0,29.99,NNW,342,9.0,19.0,43,0.00,,,0.00,,2013-04-20 00:12:00,
2013-04-19 19:21:00,53.0,32.0,29.99,North,349,6.0,10.0,44,0.00,,,0.00,,2013-04-20 00:21:00,
2013-04-19 19:32:00,52.0,31.0,29.99,NNW,348,2.0,12.0,44,0.00,,,0.00,,2013-04-20 00:32:00,
2013-04-19 19:41:00,52.0,31.0,29.99,NNW,348,2.0,12.0,44,0.00,,,0.00,,2013-04-20 00:41:00,
2013-04-19 19:52:00,51.0,33.0,29.99,NNW,348,0.0,4.0,49,0.00,,,0.00,,2013-04-20 00:52:00,
2013-04-19 20:01:00,51.0,33.0,29.99,NNW,348,0.0,3.0,50,0.00,,,0.00,,2013-04-20 01:01:00,
2013-04-19 20:11:00,51.0,33.0,29.99,NNW,348,0.0,3.0,50,0.00,,,0.00,,2013-04-20 01:11:00,
2013-04-19 20:21:00,50.0,33.0,29.99,NNW,348,0.0,0.0,51,0.00,,,0.00,,2013-04-20 01:21:00,
2013-04-19 20:32:00,49.0,33.0,30.00,NNW,348,0.0,0.0,53,0.00,,,0.00,,2013-04-20 01:32:00,
2013-04-19 20:42:00,49.0,33.0,30.00,NNW,348,0.0,0.0,53,0.00,,,0.00,,2013-04-20 01:42:00,
2013-04-19 20:52:00,47.0,34.0,30.00,NNW,348,0.0,0.0,60,0.00,,,0.00,,2013-04-20 01:52:00,
2013-04-19 21:01:00,44.0,36.0,30.01,NNW,347,0.0,0.0,72,0.00,,,0.00,,2013-04-20 02:01:00,
2013-04-19 21:11:00,43.0,36.0,30.01,NNW,348,0.0,0.0,75,0.00,,,0.00,,2013-04-20 02:11:00,
2013-04-19 21:21:00,43.0,36.0,30.01,NNW,348,0.0,0.0,75,0.00,,,0.00,,2013-04-20 02:21:00,
2013-04-19 21:30:00,41.0,35.0,30.03,NNW,347,0.0,0.0,78,0.00,,,0.00,,2013-04-20 02:30:00,
2013-04-19 21:32:00,42.0,35.0,30.02,NNW,348,0.0,0.0,77,0.00,,,0.00,,2013-04-20 02:32:00,
2013-04-19 21:42:00,42.0,35.0,30.02,NNW,348,0.0,0.0,77,0.00,,,0.00,,2013-04-20 02:42:00,
2013-04-19 21:52:00,41.0,35.0,30.03,NNW,347,0.0,0.0,78,0.00,,,0.00,,2013-04-20 02:52:00,
2013-04-19 22:01:00,41.0,35.0,30.03,NNW,347,0.0,0.0,78,0.00,,,0.00,,2013-04-20 03:01:00,
2013-04-19 22:11:00,41.0,35.0,30.03,NNW,347,0.0,0.0,78,0.00,,,0.00,,2013-04-20 03:11:00,
2013-04-19 22:21:00,41.0,35.0,30.03,NNW,347,0.0,0.0,78,0.00,,,0.00,,2013-04-20 03:21:00,
2013-04-19 22:53:00,41.0,33.0,30.04,NNW,347,1.0,5.0,74,0.00,,,0.00,,2013-04-20 03:53:00,
2013-04-19 23:03:00,41.0,34.0,30.04,NNW,347,0.0,0.0,75,0.00,,,0.00,,2013-04-20 04:03:00,
2013-04-19 23:12:00,41.0,34.0,30.04,NNW,347,0.0,0.0,75,0.00,,,0.00,,2013-04-20 04:12:00,
2013-04-19 23:23:00,41.0,33.0,30.03,NNW,347,0.0,0.0,74,0.00,,,0.00,,2013-04-20 04:23:00,
2013-04-19 23:32:00,40.0,33.0,30.03,NNW,348,0.0,0.0,75,0.00,,,0.00,,2013-04-20 04:32:00,
2013-04-19 23:42:00,40.0,33.0,30.03,NNW,348,0.0,0.0,75,0.00,,,0.00,,2013-04-20 04:42:00,
2013-04-19 23:52:00,37.0,32.0,30.04,NNW,347,0.0,0.0,81,0.00,,,0.00,,2013-04-20 04:52:00,